Location: Newark
(21.1200°N, 73.4000°E)
Time: 14:58:23
(UTC+00:00)

Explorer 11/Cluster Stage 4 - Pass Details

Date: 28 January 2020
Orbit: 467 x 1259 km, 28.8° (Epoch: 23 February)

Event Time Altitude Azimuth Distance (km) Brightness Sun altitude
Rises 11:30:52 0° 290° (WNW) 4,183 10.9 16.9°
Reaches altitude 10° 11:33:58 10° 294° (WNW) 3,177 10.3 16.3°
Maximum altitude 11:41:53 61° 13° (NNE) 1,250 7.6 14.6°
Drops below altitude 10° 11:48:37 10° 93° (E) 2,721 8.9 13.2°
Sets 11:51:04 0° 97° (E) 3,551 9.4 12.7°
